This demonstration page uses our WeatherBlox Daily Observations layout. Learn more.

Left ArrowRight Arrow

Hourly Observations for September 28, 2021

Temp ( °F °C ) Dew Point ( °F °C ) Humidity (%) Winds ( mph kmh ) Pressure ( in mb ) Visibility ( mi km ) Precip ( " mm )
12:53 am 00:53 Partly Cloudy with Nearby Thunderstorms 71 21.7 63 17.2 76 76 VRB 3 6 29.93 1013 10 16 N/A
1:10 am 01:10 Mostly Clear with Light Rain 69 20.6 64 17.8 84 84 SW 5 7 29.92 1013 10 16 0.00 0.00
1:21 am 01:21 Mostly Clear with Nearby Thunderstorms 69 20.6 64 17.8 84 84 N N/A 29.92 1013 10 16 0.00 0.00
1:53 am 01:53 Mostly Cloudy with Light Rain 67 19.4 65 18.3 93 93 VRB 3 6 29.92 1013 10 16 0.00 0.00
2:53 am 02:53 Mostly Clear with Light Rain 69 20.6 63 17.2 81 81 SW 6 9 29.92 1013 10 16 0.00 0.00
3:53 am 03:53 Partly Cloudy 69 20.6 62 16.7 78 78 VRB 6 9 29.91 1013 10 16 0.00 0.00
4:53 am 04:53 Clear 68 20 62 16.7 81 81 VRB 3 6 29.91 1013 10 16 N/A
5:53 am 05:53 Clear 66 18.9 62 16.7 87 87 N N/A 29.93 1013 10 16 N/A
6:53 am 06:53 Clear 63 17.2 62 16.7 97 97 N N/A 29.95 1014 10 16 N/A
7:53 am 07:53 Sunny 64 17.8 61 16.1 90 90 N N/A 29.95 1014 10 16 N/A
8:53 am 08:53 Sunny 69 20.6 63 17.2 81 81 N N/A 29.96 1015 10 16 N/A
9:53 am 09:53 Sunny 70 21.1 63 17.2 79 79 WSW 8 13 29.97 1015 10 16 N/A
10:53 am 10:53 Sunny 73 22.8 63 17.2 71 71 VRB 3 6 29.97 1015 10 16 N/A
11:53 am 11:53 Sunny 77 25 63 17.2 62 62 VRB 5 7 29.96 1015 10 16 N/A
12:53 pm 12:53 Sunny 78 25.6 62 16.7 58 58 VRB 5 7 29.96 1014 10 16 N/A
1:53 pm 13:53 Sunny 82 27.8 64 17.8 55 55 WNW 5 7 29.95 1014 10 16 N/A
2:53 pm 14:53 Mostly Sunny 83 28.3 64 17.8 53 53 N N/A 29.93 1014 10 16 N/A
3:53 pm 15:53 Mostly Sunny 83 28.3 64 17.8 53 53 N 3 6 29.92 1013 10 16 N/A
4:53 pm 16:53 Mostly Sunny 84 28.9 63 17.2 49 49 N N/A 29.91 1013 10 16 N/A
5:53 pm 17:53 Mostly Sunny 82 27.8 63 17.2 53 53 NW 3 6 29.91 1013 10 16 N/A
6:53 pm 18:53 Sunny 74 23.3 66 18.9 76 76 NNE 3 6 29.93 1013 10 16 N/A
7:53 pm 19:53 Mostly Cloudy 75 23.9 64 17.8 69 69 NNE 5 7 29.94 1014 10 16 N/A
8:53 pm 20:53 Clear 69 20.6 64 17.8 84 84 ENE 3 6 29.96 1014 10 16 N/A
9:53 pm 21:53 Clear 65 18.3 63 17.2 93 93 N N/A 29.98 1015 10 16 N/A
10:53 pm 22:53 Clear with Mist and Fog 63 17.2 62 16.7 97 97 N N/A 29.98 1015 6 10 N/A
11:53 pm 23:53 Clear 62 16.7 60 15.6 93 93 N N/A 29.98 1015 7 11 N/A

Powered by AerisWeather